| time (UTC) | temp C | wind direction | speed KPH | gust KPH | rain 1hr cm | rain 24hr cm | rain mn cm | humidity % | barometer mb |
| 20260507110350 | 10 | 162 | 0.0 | 0.0 | 0.00 | 0.00 | 0.00 | 73 | 1021.5 |
| 20260507105851 | 10 | 162 | 0.0 | 0.0 | 0.00 | 0.00 | 0.00 | 73 | 1021.5 |
| 20260507105348 | 10 | 162 | 0.0 | 0.0 | 0.00 | 0.00 | 0.00 | 73 | 1021.5 |
| 20260507104846 | 10 | 162 | 0.0 | 0.0 | 0.00 | 0.00 | 0.00 | 73 | 1021.5 |
| 20260507104343 | 10 | 163 | 0.0 | 0.0 | 0.00 | 0.00 | 0.00 | 73 | 1021.5 |
| 20260507103842 | 10 | 163 | 0.0 | 0.0 | 0.00 | 0.00 | 0.00 | 73 | 1021.5 |
| 20260507103342 | 10 | 163 | 0.0 | 0.0 | 0.00 | 0.00 | 0.00 | 74 | 1021.6 |
| 20260507102841 | 10 | 163 | 0.0 | 0.0 | 0.00 | 0.00 | 0.00 | 74 | 1021.6 |
| 20260507102342 | 10 | 163 | 0.0 | 0.0 | 0.00 | 0.00 | 0.00 | 73 | 1021.7 |
| 20260507101840 | 10 | 163 | 0.0 | 0.0 | 0.00 | 0.00 | 0.00 | 73 | 1021.6 |
| 20260507101340 | 10 | 163 | 0.0 | 0.0 | 0.00 | 0.00 | 0.00 | 73 | 1021.6 |
| 20260507100838 | 10 | 163 | 0.0 | 1.6 | 0.00 | 0.00 | 0.00 | 73 | 1021.7 |
| 20260507100336 | 10 | 163 | 0.0 | 1.6 | 0.00 | 0.00 | 0.00 | 73 | 1021.6 |
| 20260507095836 | 10 | 163 | 0.0 | 1.6 | 0.00 | 0.00 | 0.00 | 74 | 1021.6 |
| 20260507094836 | 10 | 163 | 0.0 | 1.6 | 0.00 | 0.00 | 0.00 | 74 | 1021.6 |
| 20260507094336 | 10 | 163 | 0.0 | 1.6 | 0.00 | 0.00 | 0.00 | 74 | 1021.6 |
| 20260507093335 | 10 | 163 | 0.0 | 3.2 | 0.00 | 0.00 | 0.00 | 74 | 1021.6 |
| 20260507092835 | 10 | 163 | 0.0 | 3.2 | 0.00 | 0.00 | 0.00 | 74 | 1021.5 |
| 20260507092335 | 10 | 163 | 0.0 | 0.0 | 0.00 | 0.00 | 0.00 | 75 | 1021.6 |
| 20260507091836 | 10 | 163 | 0.0 | 0.0 | 0.00 | 0.00 | 0.00 | 75 | 1021.6 |
| 20260507091336 | 10 | 163 | 0.0 | 1.6 | 0.00 | 0.00 | 0.00 | 75 | 1021.6 |
| 20260507090837 | 10 | 163 | 0.0 | 1.6 | 0.00 | 0.00 | 0.00 | 75 | 1021.6 |
| 20260507090337 | 10 | 159 | 0.0 | 3.2 | 0.00 | 0.00 | 0.00 | 75 | 1021.6 |
| 20260507085836 | 10 | 159 | 0.0 | 6.4 | 0.00 | 0.00 | 0.00 | 75 | 1021.6 |
| 20260507085336 | 10 | 160 | 0.0 | 6.4 | 0.00 | 0.00 | 0.00 | 75 | 1021.5 |
| 20260507084836 | 10 | 130 | 0.0 | 4.8 | 0.00 | 0.00 | 0.00 | 75 | 1021.6 |
| 20260507084337 | 10 | 128 | 0.0 | 4.8 | 0.00 | 0.00 | 0.00 | 75 | 1021.5 |
| 20260507083835 | 10 | 142 | 0.0 | 4.8 | 0.00 | 0.00 | 0.00 | 75 | 1021.5 |
| 20260507082836 | 10 | 143 | 0.0 | 4.8 | 0.00 | 0.00 | 0.00 | 75 | 1021.5 |
| 20260507082335 | 10 | 125 | 0.0 | 3.2 | 0.00 | 0.00 | 0.00 | 75 | 1021.5 |
| 20260507081835 | 10 | 178 | 0.0 | 3.2 | 0.00 | 0.00 | 0.00 | 75 | 1021.5 |
| 20260507081333 | 10 | 178 | 0.0 | 4.8 | 0.00 | 0.00 | 0.00 | 75 | 1021.5 |
| 20260507080831 | 10 | 147 | 0.0 | 4.8 | 0.00 | 0.00 | 0.00 | 75 | 1021.5 |
| 20260507080331 | 10 | 147 | 0.0 | 3.2 | 0.00 | 0.00 | 0.00 | 75 | 1021.4 |
| 20260507075330 | 10 | 144 | 0.0 | 4.8 | 0.00 | 0.00 | 0.00 | 75 | 1021.4 |
| 20260507074830 | 10 | 159 | 1.6 | 4.8 | 0.00 | 0.00 | 0.00 | 75 | 1021.3 |
| 20260507074330 | 10 | 185 | 1.6 | 4.8 | 0.00 | 0.00 | 0.00 | 75 | 1021.4 |
| 20260507073829 | 10 | 213 | 1.6 | 3.2 | 0.00 | 0.00 | 0.00 | 75 | 1021.5 |
| 20260507073325 | 10 | 213 | 1.6 | 9.7 | 0.00 | 0.00 | 0.00 | 75 | 1021.5 |
| 20260507072313 | 10 | 182 | 1.6 | 6.4 | 0.00 | 0.00 | 0.00 | 76 | 1021.5 |
| 20260507071806 | 10 | 184 | 1.6 | 6.4 | 0.00 | 0.00 | 0.00 | 75 | 1021.5 |
| 20260507071303 | 11 | 156 | 0.0 | 6.4 | 0.00 | 0.00 | 0.00 | 76 | 1021.4 |
| 20260507070804 | 11 | 150 | 0.0 | 6.4 | 0.00 | 0.00 | 0.00 | 76 | 1021.3 |
| 20260507070302 | 11 | 98 | 0.0 | 4.8 | 0.00 | 0.00 | 0.00 | 76 | 1021.4 |
| 20260507065801 | 11 | 216 | 0.0 | 4.8 | 0.00 | 0.00 | 0.00 | 76 | 1021.3 |
| 20260507064759 | 11 | 189 | 0.0 | 4.8 | 0.00 | 0.00 | 0.00 | 76 | 1021.4 |
| 20260507064300 | 11 | 150 | 0.0 | 0.0 | 0.00 | 0.00 | 0.00 | 76 | 1021.4 |
| 20260507063800 | 11 | 150 | 0.0 | 0.0 | 0.00 | 0.00 | 0.00 | 76 | 1021.5 |
| 20260507063300 | 11 | 150 | 0.0 | 3.2 | 0.00 | 0.00 | 0.00 | 76 | 1021.4 |
| 20260507062759 | 11 | 150 | 0.0 | 3.2 | 0.00 | 0.00 | 0.00 | 76 | 1021.4 |
| 20260507062301 | 11 | 156 | 0.0 | 1.6 | 0.00 | 0.00 | 0.00 | 76 | 1021.4 |
| 20260507061756 | 11 | 157 | 0.0 | 3.2 | 0.00 | 0.00 | 0.00 | 76 | 1021.4 |
| 20260507061256 | 11 | 157 | 0.0 | 3.2 | 0.00 | 0.00 | 0.00 | 75 | 1021.5 |
| 20260507060756 | 11 | 157 | 0.0 | 3.2 | 0.00 | 0.00 | 0.00 | 75 | 1021.5 |
| 20260507055755 | 11 | 164 | 0.0 | 3.2 | 0.00 | 0.00 | 0.00 | 75 | 1021.5 |
| 20260507055255 | 11 | 196 | 0.0 | 0.0 | 0.00 | 0.00 | 0.00 | 75 | 1021.5 |
| 20260507054756 | 11 | 201 | 0.0 | 3.2 | 0.00 | 0.00 | 0.00 | 75 | 1021.5 |
| 20260507054256 | 11 | 201 | 0.0 | 3.2 | 0.00 | 0.00 | 0.00 | 75 | 1021.5 |
| 20260507053752 | 11 | 205 | 0.0 | 3.2 | 0.00 | 0.00 | 0.00 | 75 | 1021.6 |
| 20260507053255 | 11 | 205 | 0.0 | 3.2 | 0.00 | 0.00 | 0.00 | 75 | 1021.5 |
| 20260507052750 | 11 | 150 | 0.0 | 3.2 | 0.00 | 0.00 | 0.00 | 75 | 1021.5 |
| 20260507052248 | 11 | 150 | 0.0 | 3.2 | 0.00 | 0.00 | 0.00 | 75 | 1021.5 |
| 20260507051246 | 11 | 143 | 0.0 | 4.8 | 0.00 | 0.00 | 0.00 | 75 | 1021.5 |
| 20260507050743 | 11 | 179 | 0.0 | 3.2 | 0.00 | 0.00 | 0.00 | 75 | 1021.5 |
| 20260507050242 | 11 | 180 | 0.0 | 4.8 | 0.00 | 0.00 | 0.00 | 75 | 1021.5 |
| 20260507045740 | 11 | 180 | 0.0 | 4.8 | 0.00 | 0.00 | 0.00 | 75 | 1021.5 |
| 20260507045237 | 11 | 124 | 0.0 | 3.2 | 0.00 | 0.00 | 0.00 | 75 | 1021.5 |
| 20260507044735 | 11 | 163 | 0.0 | 3.2 | 0.00 | 0.00 | 0.00 | 75 | 1021.5 |
| 20260507043735 | 11 | 163 | 0.0 | 3.2 | 0.00 | 0.00 | 0.00 | 75 | 1021.5 |
| 20260507043235 | 11 | 169 | 0.0 | 0.0 | 0.00 | 0.00 | 0.00 | 75 | 1021.5 |
| 20260507042733 | 12 | 169 | 0.0 | 1.6 | 0.00 | 0.00 | 0.00 | 75 | 1021.5 |
| 20260507042234 | 12 | 169 | 0.0 | 1.6 | 0.00 | 0.00 | 0.00 | 75 | 1021.4 |
| 20260507041734 | 12 | 169 | 0.0 | 1.6 | 0.00 | 0.00 | 0.00 | 75 | 1021.5 |
| 20260507041230 | 12 | 169 | 0.0 | 1.6 | 0.00 | 0.00 | 0.00 | 76 | 1021.4 |
| 20260507040727 | 12 | 169 | 1.6 | 6.4 | 0.00 | 0.00 | 0.00 | 76 | 1021.4 |
| 20260507040226 | 12 | 169 | 1.6 | 6.4 | 0.00 | 0.00 | 0.00 | 76 | 1021.4 |
| 20260507035724 | 12 | 148 | 0.0 | 4.8 | 0.00 | 0.00 | 0.00 | 76 | 1021.4 |
| 20260507035222 | 12 | 173 | 0.0 | 4.8 | 0.00 | 0.00 | 0.00 | 76 | 1021.3 |
| 20260507034222 | 12 | 177 | 0.0 | 0.0 | 0.00 | 0.00 | 0.00 | 76 | 1021.3 |
| 20260507033718 | 12 | 177 | 0.0 | 0.0 | 0.00 | 0.00 | 0.00 | 76 | 1021.2 |
| 20260507032718 | 12 | 177 | 0.0 | 0.0 | 0.00 | 0.00 | 0.00 | 75 | 1021.2 |
| 20260507031713 | 12 | 177 | 0.0 | 9.7 | 0.00 | 0.00 | 0.00 | 75 | 1021.1 |
| 20260507031211 | 12 | 177 | 0.0 | 9.7 | 0.00 | 0.00 | 0.00 | 75 | 1021.0 |
| 20260507030711 | 12 | 168 | 0.0 | 4.8 | 0.00 | 0.00 | 0.00 | 74 | 1021.0 |
| 20260507030212 | 12 | 109 | 0.0 | 4.8 | 0.00 | 0.00 | 0.00 | 74 | 1021.0 |
| 20260507025715 | 12 | 128 | 1.6 | 8.0 | 0.00 | 0.00 | 0.00 | 74 | 1020.9 |
| 20260507025212 | 12 | 123 | 1.6 | 8.0 | 0.00 | 0.00 | 0.00 | 74 | 1020.9 |
| 20260507024709 | 13 | 116 | 1.6 | 8.0 | 0.00 | 0.00 | 0.00 | 74 | 1020.9 |
| 20260507024209 | 13 | 115 | 1.6 | 12.9 | 0.00 | 0.00 | 0.00 | 73 | 1020.9 |
| 20260507023708 | 13 | 145 | 1.6 | 12.9 | 0.00 | 0.00 | 0.00 | 73 | 1020.8 |
| 20260507023207 | 13 | 155 | 1.6 | 4.8 | 0.00 | 0.00 | 0.00 | 72 | 1020.6 |
| 20260507022706 | 13 | 140 | 1.6 | 6.4 | 0.00 | 0.00 | 0.00 | 72 | 1020.6 |
| 20260507022203 | 13 | 93 | 0.0 | 6.4 | 0.00 | 0.00 | 0.00 | 72 | 1020.6 |
| 20260507021704 | 13 | 166 | 0.0 | 4.8 | 0.00 | 0.00 | 0.00 | 72 | 1020.6 |
| 20260507020701 | 13 | 166 | 0.0 | 3.2 | 0.00 | 0.00 | 0.00 | 73 | 1020.5 |
| 20260507020201 | 13 | 169 | 1.6 | 4.8 | 0.00 | 0.00 | 0.00 | 73 | 1020.6 |
| 20260507015155 | 13 | 157 | 0.0 | 3.2 | 0.00 | 0.00 | 0.00 | 72 | 1020.6 |
| 20260507014655 | 13 | 107 | 0.0 | 4.8 | 0.00 | 0.00 | 0.00 | 72 | 1020.8 |
| 20260507014154 | 13 | 199 | 0.0 | 4.8 | 0.00 | 0.00 | 0.00 | 72 | 1020.8 |
| 20260507013653 | 13 | 146 | 1.6 | 4.8 | 0.00 | 0.00 | 0.00 | 72 | 1020.8 |
| 20260507013150 | 13 | 134 | 1.6 | 8.0 | 0.00 | 0.00 | 0.00 | 72 | 1020.6 |
| 20260507012650 | 13 | 154 | 1.6 | 8.0 | 0.00 | 0.00 | 0.00 | 72 | 1020.6 |
| 20260507012149 | 13 | 127 | 1.6 | 6.4 | 0.00 | 0.00 | 0.00 | 72 | 1020.6 |
| 20260507011649 | 13 | 161 | 1.6 | 8.0 | 0.00 | 0.00 | 0.00 | 73 | 1020.8 |
| 20260507011149 | 13 | 138 | 0.0 | 8.0 | 0.00 | 0.00 | 0.00 | 72 | 1020.6 |
| 20260507010648 | 13 | 140 | 0.0 | 3.2 | 0.00 | 0.00 | 0.00 | 72 | 1020.8 |
| 20260507010145 | 13 | 137 | 1.6 | 6.4 | 0.00 | 0.00 | 0.00 | 72 | 1020.8 |
| 20260507005646 | 13 | 130 | 0.0 | 6.4 | 0.00 | 0.00 | 0.00 | 72 | 1020.9 |
| 20260507005145 | 13 | 165 | 0.0 | 3.2 | 0.00 | 0.00 | 0.00 | 72 | 1020.8 |
| 20260507004646 | 13 | 165 | 0.0 | 3.2 | 0.00 | 0.00 | 0.00 | 73 | 1020.9 |
| 20260507004148 | 13 | 165 | 0.0 | 3.2 | 0.00 | 0.00 | 0.00 | 73 | 1020.9 |
| 20260507002643 | 13 | 169 | 1.6 | 9.7 | 0.00 | 0.00 | 0.00 | 72 | 1020.9 |
| 20260507002141 | 13 | 179 | 1.6 | 9.7 | 0.00 | 0.00 | 0.00 | 72 | 1020.9 |
| 20260507001639 | 13 | 142 | 1.6 | 6.4 | 0.00 | 0.00 | 0.00 | 72 | 1020.8 |
| 20260507001137 | 13 | 157 | 0.0 | 4.8 | 0.00 | 0.00 | 0.00 | 72 | 1020.9 |
| 20260507000131 | 13 | 155 | 1.6 | 8.0 | 0.00 | 0.00 | 0.00 | 73 | 1020.9 |
| 20260506235631 | 13 | 193 | 1.6 | 3.2 | 0.00 | 0.00 | 0.00 | 73 | 1021.0 |
| 20260506235131 | 13 | 193 | 1.6 | 8.0 | 0.00 | 0.00 | 0.00 | 72 | 1020.9 |
| 20260506234631 | 13 | 203 | 1.6 | 8.0 | 0.00 | 0.00 | 0.00 | 72 | 1020.9 |
| 20260506234131 | 13 | 140 | 1.6 | 9.7 | 0.00 | 0.00 | 0.00 | 72 | 1020.9 |
| 20260506233627 | 13 | 192 | 1.6 | 9.7 | 0.00 | 0.00 | 0.00 | 72 | 1020.9 |
| 20260506233131 | 13 | 163 | 1.6 | 6.4 | 0.00 | 0.00 | 0.00 | 72 | 1020.9 |
| 20260506232127 | 13 | 200 | 0.0 | 4.8 | 0.00 | 0.00 | 0.00 | 72 | 1021.0 |
| 20260506231125 | 13 | 74 | 1.6 | 11.3 | 0.00 | 0.00 | 0.00 | 71 | 1021.0 |
| 20260506230125 | 13 | 143 | 1.6 | 4.8 | 0.00 | 0.00 | 0.00 | 71 | 1021.0 |
| 20260506225625 | 13 | 266 | 1.6 | 4.8 | 0.00 | 0.00 | 0.00 | 70 | 1021.1 |
| 20260506225124 | 14 | 121 | 0.0 | 4.8 | 0.00 | 0.00 | 0.00 | 70 | 1021.0 |
| 20260506224621 | 14 | 175 | 0.0 | 4.8 | 0.00 | 0.00 | 0.00 | 69 | 1021.0 |
| 20260506224121 | 14 | 180 | 0.0 | 4.8 | 0.00 | 0.00 | 0.00 | 69 | 1021.0 |
| 20260506223624 | 14 | 118 | 0.0 | 4.8 | 0.00 | 0.00 | 0.00 | 70 | 1021.1 |
| 20260506222616 | 14 | 189 | 1.6 | 4.8 | 0.00 | 0.00 | 0.00 | 68 | 1021.1 |
| 20260506221615 | 14 | 185 | 1.6 | 6.4 | 0.00 | 0.00 | 0.00 | 68 | 1021.1 |
| 20260506220614 | 15 | 196 | 1.6 | 6.4 | 0.00 | 0.00 | 0.00 | 67 | 1021.2 |
| 20260506220113 | 15 | 196 | 1.6 | 12.9 | 0.00 | 0.00 | 0.00 | 67 | 1021.2 |
| 20260506215611 | 15 | 244 | 1.6 | 12.9 | 0.00 | 0.00 | 0.00 | 66 | 1021.2 |
| 20260506215109 | 15 | 151 | 1.6 | 9.7 | 0.00 | 0.00 | 0.00 | 68 | 1021.1 |
| 20260506214609 | 15 | 177 | 1.6 | 9.7 | 0.00 | 0.00 | 0.00 | 67 | 1021.1 |
| 20260506214109 | 14 | 166 | 1.6 | 6.4 | 0.00 | 0.00 | 0.00 | 68 | 1021.2 |
| 20260506213607 | 14 | 117 | 1.6 | 4.8 | 0.00 | 0.00 | 0.00 | 69 | 1021.3 |
| 20260506213107 | 14 | 154 | 1.6 | 6.4 | 0.00 | 0.00 | 0.00 | 68 | 1021.2 |
| 20260506212607 | 14 | 304 | 1.6 | 8.0 | 0.00 | 0.00 | 0.00 | 68 | 1021.3 |
| 20260506212108 | 14 | 121 | 1.6 | 8.0 | 0.00 | 0.00 | 0.00 | 69 | 1021.3 |
| 20260506211106 | 14 | 86 | 1.6 | 6.4 | 0.00 | 0.00 | 0.00 | 68 | 1021.4 |
| 20260506210605 | 14 | 123 | 0.0 | 6.4 | 0.00 | 0.00 | 0.00 | 68 | 1021.3 |
| 20260506210059 | 14 | 130 | 0.0 | 3.2 | 0.00 | 0.00 | 0.00 | 69 | 1021.3 |
| 20260506205557 | 14 | 130 | 1.6 | 3.2 | 0.00 | 0.00 | 0.00 | 69 | 1021.3 |
| 20260506205057 | 14 | 130 | 1.6 | 4.8 | 0.00 | 0.00 | 0.00 | 69 | 1021.2 |
| 20260506204556 | 15 | 126 | 1.6 | 4.8 | 0.00 | 0.00 | 0.00 | 68 | 1021.2 |
| 20260506203555 | 14 | 247 | 1.6 | 4.8 | 0.00 | 0.00 | 0.00 | 68 | 1021.1 |
| 20260506203055 | 14 | 96 | 1.6 | 3.2 | 0.00 | 0.00 | 0.00 | 68 | 1021.2 |
| 20260506202555 | 14 | 96 | 1.6 | 3.2 | 0.00 | 0.00 | 0.00 | 69 | 1021.2 |
| 20260506202052 | 14 | 101 | 0.0 | 4.8 | 0.00 | 0.00 | 0.00 | 69 | 1021.1 |
| 20260506201551 | 14 | 101 | 1.6 | 6.4 | 0.00 | 0.00 | 0.00 | 68 | 1021.1 |
| 20260506201050 | 14 | 38 | 1.6 | 6.4 | 0.00 | 0.00 | 0.00 | 69 | 1021.1 |
| 20260506200550 | 14 | 36 | 0.0 | 4.8 | 0.00 | 0.00 | 0.00 | 68 | 1021.0 |
| 20260506200051 | 14 | 81 | 0.0 | 4.8 | 0.00 | 0.00 | 0.00 | 70 | 1021.1 |
| 20260506195549 | 13 | 167 | 0.0 | 4.8 | 0.00 | 0.00 | 0.00 | 69 | 1021.1 |
| 20260506195045 | 13 | 40 | 0.0 | 1.6 | 0.00 | 0.00 | 0.00 | 69 | 1021.0 |
| 20260506194545 | 13 | 275 | 0.0 | 0.0 | 0.00 | 0.00 | 0.00 | 69 | 1021.0 |
| 20260506194044 | 13 | 274 | 0.0 | 4.8 | 0.00 | 0.00 | 0.00 | 69 | 1021.0 |
| 20260506193545 | 13 | 272 | 1.6 | 4.8 | 0.00 | 0.00 | 0.00 | 70 | 1021.0 |
| 20260506193045 | 13 | 269 | 1.6 | 8.0 | 0.00 | 0.00 | 0.00 | 71 | 1021.0 |
| 20260506192544 | 13 | 217 | 1.6 | 8.0 | 0.00 | 0.00 | 0.00 | 69 | 1020.9 |
| 20260506192045 | 13 | 186 | 1.6 | 9.7 | 0.00 | 0.00 | 0.00 | 70 | 1020.9 |
| 20260506191046 | 13 | 145 | 1.6 | 6.4 | 0.00 | 0.00 | 0.00 | 69 | 1020.8 |
| 20260506190544 | 13 | 151 | 0.0 | 3.2 | 0.00 | 0.00 | 0.00 | 69 | 1020.8 |
| 20260506190044 | 13 | 150 | 0.0 | 4.8 | 0.00 | 0.00 | 0.00 | 70 | 1020.6 |
| 20260506185544 | 13 | 151 | 0.0 | 4.8 | 0.00 | 0.00 | 0.00 | 70 | 1020.8 |
| 20260506185046 | 13 | 246 | 0.0 | 3.2 | 0.00 | 0.00 | 0.00 | 70 | 1020.9 |
| 20260506184044 | 12 | 106 | 1.6 | 6.4 | 0.00 | 0.00 | 0.00 | 70 | 1020.8 |
| 20260506183548 | 12 | 187 | 1.6 | 6.4 | 0.00 | 0.00 | 0.00 | 71 | 1020.9 |
| 20260506183046 | 12 | 139 | 1.6 | 8.0 | 0.00 | 0.00 | 0.00 | 71 | 1020.9 |
| 20260506182544 | 12 | 161 | 1.6 | 8.0 | 0.00 | 0.00 | 0.00 | 70 | 1020.9 |
| 20260506182045 | 12 | 148 | 1.6 | 6.4 | 0.00 | 0.00 | 0.00 | 72 | 1020.9 |
| 20260506181045 | 12 | 150 | 1.6 | 8.0 | 0.00 | 0.00 | 0.00 | 72 | 1021.0 |
| 20260506180544 | 12 | 163 | 1.6 | 8.0 | 0.00 | 0.00 | 0.00 | 72 | 1020.8 |
| 20260506180042 | 12 | 118 | 1.6 | 8.0 | 0.00 | 0.00 | 0.00 | 74 | 1020.6 |
| 20260506175542 | 11 | 168 | 1.6 | 8.0 | 0.00 | 0.00 | 0.00 | 73 | 1020.4 |
| 20260506175040 | 11 | 173 | 0.0 | 1.6 | 0.00 | 0.00 | 0.00 | 74 | 1020.5 |
| 20260506174540 | 12 | 169 | 0.0 | 1.6 | 0.00 | 0.00 | 0.00 | 76 | 1020.5 |
| 20260506174040 | 11 | 159 | 0.0 | 4.8 | 0.00 | 0.00 | 0.00 | 79 | 1020.5 |
| 20260506173539 | 11 | 147 | 0.0 | 4.8 | 0.00 | 0.00 | 0.00 | 79 | 1020.5 |
| 20260506173041 | 11 | 185 | 0.0 | 4.8 | 0.00 | 0.00 | 0.00 | 81 | 1020.5 |
| 20260506172539 | 11 | 248 | 0.0 | 3.2 | 0.00 | 0.00 | 0.00 | 82 | 1020.8 |
| 20260506172036 | 11 | 218 | 0.0 | 4.8 | 0.00 | 0.00 | 0.00 | 83 | 1020.6 |
| 20260506171534 | 11 | 225 | 1.6 | 4.8 | 0.00 | 0.00 | 0.00 | 83 | 1020.6 |
| 20260506171030 | 11 | 144 | 1.6 | 4.8 | 0.00 | 0.00 | 0.00 | 83 | 1020.6 |
| 20260506170530 | 11 | 153 | 1.6 | 4.8 | 0.00 | 0.00 | 0.00 | 83 | 1020.8 |
| 20260506170031 | 11 | 145 | 1.6 | 4.8 | 0.00 | 0.00 | 0.00 | 83 | 1020.5 |
| 20260506165531 | 11 | 165 | 1.6 | 9.7 | 0.00 | 0.00 | 0.00 | 83 | 1020.6 |
| 20260506165028 | 11 | 189 | 1.6 | 9.7 | 0.00 | 0.00 | 0.00 | 83 | 1020.5 |
| 20260506164026 | 11 | 198 | 1.6 | 6.4 | 0.00 | 0.00 | 0.00 | 83 | 1020.6 |
| 20260506163526 | 11 | 170 | 1.6 | 6.4 | 0.00 | 0.00 | 0.00 | 83 | 1020.4 |
| 20260506163026 | 11 | 173 | 1.6 | 9.7 | 0.00 | 0.00 | 0.00 | 83 | 1020.4 |
| 20260506162524 | 11 | 175 | 0.0 | 9.7 | 0.00 | 0.00 | 0.00 | 83 | 1020.2 |
| 20260506162024 | 11 | 201 | 0.0 | 0.0 | 0.00 | 0.00 | 0.00 | 83 | 1020.2 |
| 20260506161524 | 11 | 202 | 0.0 | 0.0 | 0.00 | 0.00 | 0.00 | 83 | 1020.0 |
| 20260506161023 | 11 | 202 | 0.0 | 3.2 | 0.00 | 0.00 | 0.00 | 84 | 1020.0 |
| 20260506160520 | 11 | 227 | 1.6 | 6.4 | 0.00 | 0.00 | 0.00 | 84 | 1019.9 |
| 20260506160018 | 11 | 136 | 0.0 | 6.4 | 0.00 | 0.00 | 0.00 | 84 | 1019.9 |
| 20260506155517 | 11 | 166 | 0.0 | 4.8 | 0.00 | 0.00 | 0.00 | 83 | 1020.0 |
| 20260506155014 | 11 | 177 | 0.0 | 3.2 | 0.00 | 0.00 | 0.00 | 83 | 1020.1 |
| 20260506154512 | 11 | 185 | 0.0 | 3.2 | 0.00 | 0.00 | 0.00 | 83 | 1020.1 |
| 20260506154010 | 11 | 186 | 0.0 | 3.2 | 0.00 | 0.00 | 0.00 | 83 | 1020.1 |
| 20260506153510 | 11 | 185 | 0.0 | 3.2 | 0.00 | 0.00 | 0.00 | 83 | 1020.4 |
| 20260506153010 | 11 | 186 | 0.0 | 6.4 | 0.00 | 0.00 | 0.00 | 83 | 1020.4 |
| 20260506152009 | 11 | 180 | 1.6 | 4.8 | 0.00 | 0.00 | 0.00 | 83 | 1020.2 |
| 20260506151508 | 11 | 180 | 1.6 | 8.0 | 0.00 | 0.00 | 0.00 | 83 | 1020.2 |
| 20260506151006 | 11 | 179 | 0.0 | 8.0 | 0.00 | 0.00 | 0.00 | 83 | 1020.1 |
| 20260506150509 | 11 | 134 | 0.0 | 3.2 | 0.00 | 0.00 | 0.00 | 83 | 1019.9 |
| 20260506150006 | 11 | 134 | 0.0 | 4.8 | 0.00 | 0.00 | 0.00 | 83 | 1019.9 |
| 20260506145506 | 11 | 146 | 1.6 | 6.4 | 0.00 | 0.00 | 0.00 | 82 | 1019.9 |
| 20260506145005 | 11 | 159 | 1.6 | 6.4 | 0.00 | 0.00 | 0.00 | 81 | 1019.9 |
| 20260506144504 | 11 | 123 | 1.6 | 4.8 | 0.00 | 0.00 | 0.00 | 80 | 1020.1 |
| 20260506144002 | 11 | 170 | 1.6 | 4.8 | 0.00 | 0.00 | 0.00 | 80 | 1020.1 |
| 20260506143502 | 11 | 150 | 1.6 | 6.4 | 0.00 | 0.00 | 0.00 | 79 | 1020.2 |
| 20260506143003 | 11 | 173 | 1.6 | 6.4 | 0.00 | 0.00 | 0.00 | 79 | 1020.2 |
| 20260506142500 | 11 | 144 | 1.6 | 6.4 | 0.00 | 0.00 | 0.00 | 78 | 1020.0 |
| 20260506142000 | 11 | 117 | 1.6 | 6.4 | 0.00 | 0.00 | 0.00 | 78 | 1020.0 |
| 20260506141501 | 11 | 155 | 1.6 | 6.4 | 0.00 | 0.00 | 0.00 | 78 | 1019.8 |
| 20260506135954 | 11 | 91 | 1.6 | 6.4 | 0.00 | 0.00 | 0.00 | 78 | 1019.7 |
| 20260506135448 | 11 | 167 | 0.0 | 6.4 | 0.00 | 0.00 | 0.00 | 77 | 1019.9 |
| 20260506134948 | 11 | 192 | 0.0 | 4.8 | 0.00 | 0.00 | 0.00 | 76 | 1019.8 |
| 20260506134446 | 11 | 192 | 0.0 | 4.8 | 0.00 | 0.00 | 0.00 | 76 | 1019.9 |
| 20260506133946 | 11 | 188 | 0.0 | 4.8 | 0.00 | 0.00 | 0.00 | 76 | 1019.5 |
| 20260506133450 | 11 | 165 | 0.0 | 1.6 | 0.00 | 0.00 | 0.00 | 76 | 1019.7 |
| 20260506132947 | 11 | 165 | 0.0 | 4.8 | 0.00 | 0.00 | 0.00 | 76 | 1019.8 |
| 20260506132446 | 11 | 166 | 0.0 | 6.4 | 0.00 | 0.00 | 0.00 | 76 | 1019.7 |
| 20260506131447 | 11 | 136 | 0.0 | 3.2 | 0.00 | 0.00 | 0.00 | 76 | 1019.5 |
| 20260506130943 | 11 | 162 | 0.0 | 3.2 | 0.00 | 0.00 | 0.00 | 75 | 1019.6 |
| 20260506125944 | 11 | 200 | 1.6 | 6.4 | 0.00 | 0.00 | 0.00 | 75 | 1019.0 |
| 20260506125445 | 11 | 210 | 0.0 | 6.4 | 0.00 | 0.00 | 0.00 | 75 | 1019.3 |
| 20260506124945 | 11 | 121 | 0.0 | 4.8 | 0.00 | 0.00 | 0.00 | 76 | 1019.3 |
| 20260506124443 | 11 | 121 | 1.6 | 8.0 | 0.00 | 0.00 | 0.00 | 75 | 1019.2 |
| 20260506123946 | 11 | 140 | 1.6 | 8.0 | 0.00 | 0.00 | 0.00 | 75 | 1019.3 |
| 20260506123445 | 11 | 186 | 1.6 | 6.4 | 0.00 | 0.00 | 0.00 | 75 | 1019.2 |
| 20260506122943 | 11 | 136 | 1.6 | 4.8 | 0.00 | 0.00 | 0.00 | 75 | 1019.1 |
| 20260506122445 | 11 | 208 | 1.6 | 6.4 | 0.00 | 0.00 | 0.00 | 75 | 1019.1 |
| 20260506121938 | 11 | 176 | 1.6 | 6.4 | 0.00 | 0.00 | 0.00 | 75 | 1019.0 |
| 20260506120927 | 11 | 163 | 0.0 | 6.4 | 0.00 | 0.00 | 0.00 | 75 | 1019.1 |
| 20260506120428 | 11 | 181 | 1.6 | 6.4 | 0.00 | 0.00 | 0.00 | 75 | 1019.0 |
| 20260506115926 | 11 | 196 | 1.6 | 8.0 | 0.00 | 0.00 | 0.00 | 75 | 1019.0 |
| 20260506115426 | 11 | 188 | 1.6 | 8.0 | 0.00 | 0.00 | 0.00 | 75 | 1018.9 |
| 20260506114928 | 11 | 182 | 1.6 | 6.4 | 0.00 | 0.00 | 0.00 | 75 | 1018.9 |
| 20260506113926 | 11 | 153 | 1.6 | 4.8 | 0.00 | 0.00 | 0.00 | 74 | 1018.7 |
| 20260506113427 | 11 | 178 | 0.0 | 3.2 | 0.00 | 0.00 | 0.00 | 74 | 1018.8 |
| 20260506112926 | 11 | 171 | 1.6 | 6.4 | 0.00 | 0.00 | 0.00 | 74 | 1018.7 |
| 20260506112424 | 11 | 157 | 0.0 | 6.4 | 0.00 | 0.00 | 0.00 | 74 | 1018.8 |
| 20260506111422 | 11 | 202 | 1.6 | 4.8 | 0.00 | 0.00 | 0.00 | 74 | 1018.7 |
| 20260506110921 | 11 | 154 | 0.0 | 0.0 | 0.00 | 0.00 | 0.00 | 74 | 1018.8 |